Погода Богучаны

Погода Богучаны : погода сейчас, прогноз погоды и архив. Всё, что Вы хотите узнать о погоде Богучаны!

Хотите узнать прогноз погоды Богучаны? Тогда Вам сюда: Погода Богучаны

Поиск расширенной информации на нашем сайте:

Другие новости

Новости СМИ2

Главная страница сайта

Новости сайта

03.07.2017

Напоминаем, что на нашем специализированном сайте Метеоцентр.Азия вы можете получить высокодетализированные автоматические прогнозы погоды по пунктам России, СНГ и мира в авиационном формате (включающие направление и скорость ветра, видимость, явления погоды, количество и форму облачности, нижнюю и верхнюю границу облачности).


Погода Богучаны - сегодня

Время (UTC), дата Ветер
(°,м/с) 
Видим.   Явления Облачность Т
(°С)
Тd
(°С)
f(%) Тe
(°С)
Pmin
(гПа)
dP
(гПа)
Po
(мм)
O2
(г/м3)
Тmin Tmax R s Состояние
почвы
15 19.05.18 090 (В) 20000 м    10/10 600 м кучево-дожд. 
[Cb cap]
+9.1 -4.2 39 +9  1007.8  0.4  744  290           
18 19.05.18 тихо ()   50000 м    10/10 600 м кучево-дожд. 
[Cb cap]
+6 -2.3 55 +6  1007.1  -0.9  743  293           
21 19.05.18 250 (З) 10 км  слаб. ливневой дождь  10/10 600 м кучево-дожд. 
[Cb cap]
+2.9 +1 87 +2  1009.3  745  297           
00 20.05.18 270 (З) 20000 м  {ливн. осадки}  10/9 600 м кучево-дожд., верхняя 
[Cb cap|Ci fib]
+3.4 +0.6 82 +3  1010.9  1.7  746  297  +2.8      влажная 
06 20.05.18 230 (ЮЗ) 20000 м  {ливн. осадки}  8/8 600 м кучево-дожд. 
[Cb cap]
+7.1 -3.2 48 +7  1013.7  748  294           
09 20.05.18 180 (Ю) 20000 м    8/8 600 м кучево-дожд. 
[Cb cap]
+8.3 -3.6 43 +9  1014.5  0.8  749  293           
12 20.05.18 050 (СВ) 20000 м  {ливн. осадки}  6/4 600 м кучево-дожд., верхняя 
[Cb cap|Ci fib]
+6.4 -1.3 58 +7  1016.5  1.9  750  295    +8.4  0.0     
15 20.05.18 230 (ЮЗ) 20000 м    6/3 600 м кучево-дожд., верхняя 
[Cb cap|Ci fib]
+2.1 -1.4 78 +3  1018.3  1.5  751  301           
18 20.05.18 240 (ЮЗ) 50000 м    4/1 600 м кучево-дожд., верхняя 
[Cb cap|Ci fib]
-0 -2 86 +1  1019  0.6  752  303           
21 20.05.18 280 (З) 20000 м    10/10 600 м кучево-дожд. 
[Cb cap]
+2 +0.1 87 +3  1019.4  0.5  752  301           
00 21.05.18 270 (З) 20000 м    10/10 600 м кучево-дожд. 
[Cb cap]
+3.6 +1.1 84 +4  1019.6  0.3  752  299  -0.5        влажная 
03 21.05.18 280 (З) 20000 м    4/3 600 м кучево-дожд., верхняя 
[Cb cap|Ci fib]
+8.9 +1.6 60 +8  1018.3  -1  752  293           
06 21.05.18 290 (З) 20000 м    6/6 600 м кучево-дожд. 
[Cb cap]
+13.3 -1.9 35 +13  1016.4  -1.6  750  288           
09 21.05.18 300 (СЗ) 20000 м    8/4 600 м кучево-дожд., верхняя 
[Cb cap|Ci fib]
+14.1 -3.1 30 +14  1014.6  -1.8  749  287           
12 21.05.18 250 (З) 20000 м    8/4 600 м кучево-дожд., верхняя 
[Cb cap|Ci fib]
+14.3 -4.8 26 +14  1012.9  -1.6  748  287    +15.6       
15 21.05.18 230 (ЮЗ) 20000 м    6/3 600 м кучево-дожд., верхняя 
[Cb cap|Ci fib]
+10.3 -3.9 37 +11  1011.6  -1.5  747  290           
18 21.05.18 300 (СЗ) 50000 м    3/3 600 м кучево-дожд. 
[Cb cap]
+7.1 -2.1 52 +7  1009.1  -2.7  745  293           
21 21.05.18 200 (Ю) 20000 м    10/10 600 м кучево-дожд. 
[Cb cap]
+8.5 -2.3 47 +9  1005.4  -3.5  742  290           
00 22.05.18 210 (ЮЗ) 20000 м  {ливн. осадки}  10/10 600 м кучево-дожд. 
[Cb cap]
+8.1 +2.4 67 +8  1002.4  -3  740  289  +5    0.0    влажная 
03 22.05.18 240 (ЮЗ) 10 км  слаб. ливневой дождь  10/10 600 м кучево-дожд. 
[Cb cap]
+7.5 +4.9 84 +7  1000  -2.4  738  289           
06 22.05.18 050 (СВ) 10 км  слаб. ливневой дождь  10/10 600 м кучево-дожд. 
[Cb cap]
+7.8 +6.5 91 +9  998  -1.9  737  287           
09 22.05.18 280 (З) 10 км  слаб. ливневой дождь  10/10 600 м кучево-дожд. 
[Cb cap]
+8.6 +7.4 92 +10  997.3  -0.6  736  286           
12 22.05.18 тихо ()   20000 м  {ливн. осадки}  10/3 600 м кучево-дожд., средняя, верхняя 
[Cb cap|Ac trans|Ci fib]
+11.7 +8.9 83 +12  996  -1.1  735  282    +11.7     
15 22.05.18 230 (ЮЗ) 10 км  слаб. ливневой дождь  10/10 600 м кучево-дожд. 
[Cb cap]
+9.9 +8.9 93 +10  995.6  -0.5  735  284           
18 22.05.18 260 (З) 10 км  слаб. ливневой дождь  10/10 600 м кучево-дожд. 
[Cb cap]
+8 +6.1 88 +8  995.2  -0.5  734  286           
Время (UTC), дата Ветер
(°,м/с) 
Видим.   Явления Облачность Т
(°С)
Тd
(°С)
f(%) Тe
(°С)
Pmin
(гПа)
dP
(гПа)
Po
(мм)
O2
(г/м3)
Тmin Tmax R s Состояние
почвы

Для получения пояснительной информации подведите курсор к названию столбца.

ПОГОДА Богучаны - архив

Всё, что Вы хотите узнать о погоде Богучаны - удобно и подробно!

Выберите нужную дату (начиная с 1 января 2015* года) и нажмите кнопку "Найти".
Будут отображены архивные сводки погоды по пункту Богучаны, начиная с указанной даты.


Отображать данные в формате CSV (для использования в таблицах Excel)


Внимание! Наш архив погоды предназначен исключительно для личного некоммерческого использования в познавательных целях. Если Вам необходимы официальные справки о состоянии погоды (для производственных, юридических, коммерческих и т.п. целей), обращайтесь в органы Росгидромета.

*Примечание: данная дата относится к архиву по метеостанциям СССР (Россия, СНГ, Балтия).
Архив по метеостанциям Зарубежной Европы и Азии (кроме Китая) хранится 10 дней, по другим регионам земного шара (Китай, Африка, Америка, Австралия, Океания) - 1 день.

Богучаны - район местоположения метеостанции


Название, широта, долгота, высота метеостанции:
Богучаны 58.4°ш. 97.4°д. 133 м над ур. моря [Российская Федерация]

Дополнительная информация

В oтличие oт бoльшинства пoгoдных сайтoв мы публикуем пoдрoбную метеoинфoрмацию в детальнoм прoфессиoнальнoм фoрмате.

Характеристики температуры и влажнoсти вoздуха измеряются на высoте 2 м в тени вдали oт зданий и деревьев.
Скoрoсть ветра измеряется на высoте 10 м (на урoвне рoста челoвека скoрoсть ветра ниже в 1.5-2 раза). Если метеoстанция нахoдится в гoрoде или в лесу, тo скoрoсть ветра занижена на 2-4 м/с пo сравнению с oткрытым местoм. Скoрoсть ветра над акватoриями крупных рек и oзёр, а также на вершинах хoлмoв на 2-5 м/с выше, чем в oбычных услoвиях.
Атмoсфернoе давление в разных тoчках местнoсти мoжет значительнo oтличаться oт давления на метеoстанции, в зависимoсти oт услoвий рельефа (при пoдъёме на 10 м давление пoнижается примернo на 1 мм рт.ст.).